TimePST,TemperatureF,Dew PointF,Humidity,Sea Level PressureIn,VisibilityMPH,Wind Direction,Wind SpeedMPH,Gust SpeedMPH,PrecipitationIn,Events,Conditions,WindDirDegrees,DateUTC
12:53 AM,59.0,21.0,23,30.28,10.0,ENE,4.6,-,N/A,,Clear,60,2013-03-01 08:53:00
1:53 AM,54.0,23.0,30,30.27,10.0,Calm,Calm,-,N/A,,Clear,0,2013-03-01 09:53:00
2:53 AM,55.0,23.0,29,30.25,10.0,Calm,Calm,-,N/A,,Clear,0,2013-03-01 10:53:00
3:53 AM,54.0,24.1,31,30.25,10.0,NE,3.5,-,N/A,,Clear,50,2013-03-01 11:53:00
4:53 AM,59.0,21.0,23,30.25,10.0,Calm,Calm,-,N/A,,Clear,0,2013-03-01 12:53:00
5:53 AM,55.0,23.0,29,30.24,10.0,Calm,Calm,-,N/A,,Clear,0,2013-03-01 13:53:00
6:53 AM,59.0,21.9,24,30.23,10.0,Calm,Calm,-,N/A,,Clear,0,2013-03-01 14:53:00
7:53 AM,64.9,24.1,21,30.24,10.0,North,4.6,-,N/A,,Clear,350,2013-03-01 15:53:00
8:53 AM,72.0,25.0,17,30.23,10.0,Calm,Calm,-,N/A,,Clear,0,2013-03-01 16:53:00
9:53 AM,78.1,24.1,14,30.22,10.0,Variable,4.6,-,N/A,,Clear,0,2013-03-01 17:53:00
10:53 AM,84.9,18.0,8,30.20,10.0,Variable,6.9,-,N/A,,Clear,0,2013-03-01 18:53:00
11:53 AM,78.1,28.0,16,30.19,10.0,West,11.5,-,N/A,,Clear,260,2013-03-01 19:53:00
12:53 PM,75.0,37.0,25,30.17,10.0,West,5.8,-,N/A,,Clear,260,2013-03-01 20:53:00
1:53 PM,75.9,28.0,17,30.16,10.0,West,8.1,-,N/A,,Clear,280,2013-03-01 21:53:00
2:53 PM,77.0,23.0,13,30.15,10.0,Variable,6.9,-,N/A,,Clear,0,2013-03-01 22:53:00
3:53 PM,78.1,26.1,15,30.14,10.0,Variable,5.8,-,N/A,,Clear,0,2013-03-01 23:53:00
4:53 PM,77.0,28.0,17,30.14,10.0,Calm,Calm,-,N/A,,Clear,0,2013-03-02 00:53:00
5:53 PM,73.9,26.1,17,30.15,10.0,Calm,Calm,-,N/A,,Clear,0,2013-03-02 01:53:00
6:53 PM,71.1,23.0,16,30.16,10.0,Calm,Calm,-,N/A,,Clear,0,2013-03-02 02:53:00
7:53 PM,66.0,27.0,23,30.17,10.0,Calm,Calm,-,N/A,,Clear,0,2013-03-02 03:53:00
8:53 PM,66.9,28.0,23,30.17,10.0,Calm,Calm,-,N/A,,Clear,0,2013-03-02 04:53:00
9:53 PM,64.0,28.0,26,30.18,10.0,East,3.5,-,N/A,,Clear,100,2013-03-02 05:53:00
10:53 PM,60.8,28.4,29,30.19,10.0,Calm,Calm,-,N/A,,Clear,0,2013-03-02 06:53:00
11:53 PM,63.0,26.1,25,30.19,10.0,Calm,Calm,-,N/A,,Clear,0,2013-03-02 07:53:00